User: anonymous   Login
Location: Theydon Bois
(51.6750°N, 0.1050°E)
Time: 10:10:17
(UTC+01:00)
Language:

Cosmos-2242 - Orbit

View from above orbital plane
View from above orbital plane
View from above satellite
View from above satellite

Ground track
Ground track

The orbit data is extracted from the following two-line orbital elements,

1 22626U 93024A   17291.55704660 +.00000260 +00000-0 +25643-4 0  9991
2 22626 082.5191 285.5041 0020613 072.9762 287.3712 14.87718266324195
Epoch (UTC): 18 October 2017 13:22:08
Eccentricity: 0.0020613
inclination: 82.5191°
perigee height: 590 km
apogee height: 619 km
right ascension of ascending node: 285.5041°
argument of perigee: 72.9762°
revolutions per day: 14.87718266
mean anomaly at epoch: 287.3712°
orbit number at epoch: 32419

The dashed part of the orbit path shows where the satellite is in the earth's shadow,  

DLR